| time (UTC) | temp F | wind direction | speed knots | gust knots | rain 1hr in | rain 24hr in | rain mn in | humidity % | barometer mb |
| 20260510063006 | 47 | 0 | 0.0 | 0.0 | 0.00 | 0.77 | 0.00 | 99 | 1006.7 |
| 20260510061506 | 46 | 0 | 0.0 | 0.0 | 0.00 | 0.77 | 0.00 | 99 | 1006.8 |
| 20260510060006 | 45 | 0 | 0.0 | 0.0 | 0.00 | 0.77 | 0.00 | 99 | 1006.7 |
| 20260510054505 | 44 | 0 | 0.0 | 0.0 | 0.00 | 0.77 | 0.00 | 99 | 1006.8 |
| 20260510053006 | 44 | 0 | 0.0 | 0.0 | 0.00 | 0.77 | 0.00 | 99 | 1006.6 |
| 20260510050006 | 44 | 0 | 0.0 | 0.0 | 0.00 | 0.77 | 0.00 | 99 | 1006.6 |
| 20260510044506 | 44 | 0 | 0.0 | 0.0 | 0.00 | 0.77 | 0.00 | 99 | 1006.4 |
| 20260510043005 | 44 | 0 | 0.0 | 0.0 | 0.00 | 0.77 | 0.00 | 99 | 1006.6 |
| 20260510041505 | 44 | 0 | 0.0 | 0.0 | 0.00 | 0.77 | 0.00 | 99 | 1006.5 |
| 20260510040006 | 44 | 0 | 0.0 | 0.0 | 0.00 | 0.77 | 0.00 | 99 | 1006.4 |
| 20260510034506 | 44 | 0 | 0.0 | 0.0 | 0.00 | 0.77 | 0.00 | 99 | 1006.6 |
| 20260510033005 | 44 | 0 | 0.0 | 0.0 | 0.00 | 0.77 | 0.00 | 99 | 1006.5 |
| 20260510031505 | 44 | 0 | 0.0 | 0.0 | 0.00 | 0.77 | 0.00 | 99 | 1006.7 |
| 20260510030005 | 45 | 0 | 0.0 | 0.0 | 0.00 | 0.77 | 0.00 | 99 | 1006.8 |
| 20260510023006 | 44 | 0 | 0.0 | 0.0 | 0.00 | 0.77 | 0.00 | 99 | 1007.1 |
| 20260510020005 | 45 | 0 | 0.0 | 0.0 | 0.00 | 0.77 | 0.00 | 99 | 1006.9 |
| 20260510014505 | 45 | 0 | 0.0 | 0.0 | 0.00 | 0.77 | 0.00 | 99 | 1006.8 |
| 20260510013006 | 46 | 0 | 0.0 | 0.0 | 0.00 | 0.77 | 0.00 | 99 | 1007.2 |
| 20260510011505 | 46 | 0 | 0.0 | 0.0 | 0.00 | 0.77 | 0.00 | 99 | 1007.4 |
| 20260510010005 | 46 | 0 | 0.0 | 0.0 | 0.00 | 0.77 | 0.00 | 99 | 1007.3 |
| 20260510004505 | 47 | 0 | 0.0 | 0.0 | 0.00 | 0.77 | 0.00 | 99 | 1007.6 |
| 20260510003005 | 48 | 0 | 0.0 | 0.0 | 0.00 | 0.77 | 0.00 | 99 | 1008.0 |
| 20260510000005 | 49 | 0 | 0.0 | 0.0 | 0.00 | 0.77 | 0.00 | 99 | 1008.3 |
| 20260509234505 | 50 | 0 | 0.0 | 0.0 | 0.00 | 0.77 | 0.00 | 99 | 1008.6 |
| 20260509231505 | 50 | 0 | 0.0 | 0.0 | 0.00 | 0.77 | 0.00 | 99 | 1009.2 |
| 20260509230005 | 50 | 0 | 0.0 | 0.0 | 0.00 | 0.77 | 0.00 | 99 | 1009.3 |
| 20260509224505 | 50 | 0 | 0.0 | 0.0 | 0.00 | 0.77 | 0.00 | 99 | 1009.5 |
| 20260509223005 | 51 | 0 | 0.0 | 0.0 | 0.00 | 0.77 | 0.00 | 99 | 1009.4 |
| 20260509221505 | 51 | 0 | 0.0 | 0.0 | 0.00 | 0.77 | 0.00 | 99 | 1009.3 |
| 20260509220006 | 51 | 0 | 0.0 | 0.0 | 0.01 | 0.77 | 0.00 | 99 | 1009.3 |
| 20260509214505 | 51 | 0 | 0.0 | 0.0 | 0.01 | 0.77 | 0.77 | 99 | 1009.2 |
| 20260509211505 | 51 | 0 | 0.0 | 0.0 | 0.01 | 0.77 | 0.77 | 99 | 1009.0 |
| 20260509204505 | 51 | 0 | 0.0 | 0.0 | 0.01 | 0.75 | 0.75 | 99 | 1008.9 |
| 20260509203006 | 51 | 0 | 0.0 | 0.0 | 0.01 | 0.75 | 0.75 | 99 | 1008.5 |
| 20260509201505 | 51 | 0 | 0.0 | 0.0 | 0.03 | 0.75 | 0.75 | 99 | 1008.2 |
| 20260509200005 | 51 | 0 | 0.0 | 0.0 | 0.01 | 0.74 | 0.74 | 99 | 1008.1 |
| 20260509194505 | 51 | 0 | 0.0 | 0.0 | 0.03 | 0.74 | 0.74 | 99 | 1008.1 |
| 20260509193005 | 51 | 0 | 0.0 | 0.0 | 0.03 | 0.74 | 0.74 | 99 | 1007.7 |
| 20260509191505 | 51 | 0 | 0.0 | 0.0 | 0.07 | 0.72 | 0.72 | 99 | 1007.2 |
| 20260509184504 | 52 | 0 | 0.0 | 0.0 | 0.18 | 0.71 | 0.71 | 98 | 1007.2 |
| 20260509183005 | 52 | 0 | 0.0 | 0.0 | 0.21 | 0.71 | 0.71 | 98 | 1007.4 |
| 20260509181505 | 52 | 0 | 0.0 | 0.0 | 0.18 | 0.65 | 0.65 | 97 | 1007.8 |
| 20260509180005 | 52 | 0 | 0.0 | 0.0 | 0.18 | 0.56 | 0.56 | 97 | 1008.1 |
| 20260509174504 | 53 | 0 | 0.0 | 0.0 | 0.43 | 0.53 | 0.53 | 96 | 1008.1 |
| 20260509173004 | 53 | 0 | 0.0 | 0.0 | 0.49 | 0.50 | 0.50 | 95 | 1008.3 |
| 20260509171505 | 53 | 0 | 0.0 | 0.0 | 0.46 | 0.47 | 0.47 | 95 | 1008.4 |
| 20260509170005 | 54 | 0 | 0.0 | 0.0 | 0.38 | 0.38 | 0.38 | 94 | 1008.7 |
| 20260509164504 | 54 | 0 | 0.0 | 0.0 | 0.10 | 0.10 | 0.10 | 90 | 1008.6 |
| 20260509161505 | 55 | 0 | 0.0 | 0.0 | 0.01 | 0.01 | 0.01 | 85 | 1007.8 |
| 20260509160004 | 56 | 0 | 0.0 | 0.0 | 0.00 | 0.00 | 0.00 | 84 | 1007.3 |
| 20260509154505 | 56 | 0 | 0.0 | 0.0 | 0.00 | 0.00 | 0.00 | 82 | 1007.4 |
| 20260509153004 | 57 | 0 | 0.0 | 0.0 | 0.00 | 0.00 | 0.00 | 79 | 1007.4 |
| 20260509151504 | 58 | 1 | 0.0 | 3.5 | 0.00 | 0.00 | 0.00 | 75 | 1007.5 |
| 20260509150005 | 58 | 25 | 1.7 | 1.7 | 0.00 | 0.00 | 0.00 | 73 | 1008.3 |
| 20260509144504 | 59 | 51 | 0.0 | 1.7 | 0.00 | 0.00 | 0.00 | 72 | 1008.3 |
| 20260509143005 | 60 | 0 | 0.0 | 0.0 | 0.00 | 0.00 | 0.00 | 72 | 1008.6 |
| 20260509141504 | 60 | 53 | 0.9 | 1.7 | 0.00 | 0.00 | 0.00 | 71 | 1008.7 |
| 20260509140005 | 60 | 8 | 1.7 | 2.6 | 0.00 | 0.00 | 0.00 | 72 | 1008.5 |
| 20260509134505 | 59 | 340 | 1.7 | 2.6 | 0.00 | 0.00 | 0.00 | 75 | 1008.9 |
| 20260509133004 | 58 | 32 | 0.0 | 2.6 | 0.00 | 0.00 | 0.00 | 75 | 1008.7 |
| 20260509131504 | 59 | 1 | 1.7 | 3.5 | 0.00 | 0.00 | 0.00 | 73 | 1008.8 |
| 20260509130005 | 60 | 25 | 1.7 | 3.5 | 0.00 | 0.00 | 0.00 | 74 | 1008.9 |
| 20260509123004 | 61 | 68 | 0.9 | 1.7 | 0.00 | 0.00 | 0.00 | 71 | 1009.2 |
| 20260509121505 | 61 | 19 | 1.7 | 2.6 | 0.00 | 0.00 | 0.00 | 70 | 1009.5 |
| 20260509120004 | 62 | 45 | 0.0 | 3.5 | 0.00 | 0.00 | 0.00 | 70 | 1009.8 |
| 20260509113004 | 62 | 40 | 1.7 | 3.5 | 0.00 | 0.00 | 0.00 | 67 | 1009.7 |
| 20260509111504 | 63 | 38 | 0.0 | 5.2 | 0.00 | 0.00 | 0.00 | 64 | 1009.7 |
| 20260509110004 | 63 | 299 | 0.0 | 2.6 | 0.00 | 0.00 | 0.00 | 68 | 1009.8 |
| 20260509100004 | 62 | 0 | 0.0 | 0.0 | 0.00 | 0.00 | 0.00 | 70 | 1009.9 |
| 20260509094504 | 61 | 314 | 0.9 | 1.7 | 0.00 | 0.00 | 0.00 | 72 | 1009.7 |
| 20260509093004 | 61 | 331 | 0.0 | 1.7 | 0.00 | 0.00 | 0.00 | 71 | 1009.5 |
| 20260509091504 | 61 | 270 | 1.7 | 1.7 | 0.00 | 0.00 | 0.00 | 71 | 1009.7 |
| 20260509084503 | 60 | 341 | 0.9 | 1.7 | 0.00 | 0.00 | 0.00 | 75 | 1009.6 |
| 20260509083006 | 58 | 0 | 0.0 | 0.0 | 0.00 | 0.00 | 0.00 | 80 | 1009.8 |
| 20260509081506 | 57 | 0 | 0.0 | 0.0 | 0.00 | 0.00 | 0.00 | 82 | 1009.9 |
| 20260509080006 | 57 | 0 | 0.0 | 0.0 | 0.00 | 0.00 | 0.00 | 89 | 1010.1 |
| 20260509074506 | 56 | 0 | 0.0 | 0.0 | 0.00 | 0.00 | 0.00 | 97 | 1010.0 |
| 20260509073006 | 55 | 0 | 0.0 | 0.0 | 0.00 | 0.00 | 0.00 | 99 | 1010.1 |
| 20260509071506 | 54 | 0 | 0.0 | 0.0 | 0.00 | 0.00 | 0.00 | 99 | 1010.2 |
| 20260509070006 | 52 | 0 | 0.0 | 0.0 | 0.00 | 0.00 | 0.00 | 99 | 1010.4 |
| 20260509064506 | 51 | 0 | 0.0 | 0.0 | 0.00 | 0.00 | 0.00 | 99 | 1010.3 |